User: anonymous   Login
Location: Unspecified
(0.0000°N, 0.0000°E)
Time: 01:01:01
(UTC+00:00)
Language:

NOSS 2-3 (C) - Orbit

View from above orbital plane
View from above orbital plane
View from above satellite
View from above satellite

Ground track
Ground track

The orbit data is extracted from the following two-line orbital elements,

1 23908U 96029C   20037.18432114 0.00000000  00000-0  00000-0 0    07
2 23908  63.3654  93.5931 0687905  20.1691 339.8309 13.40911932    03
Epoch (UTC): 06 February 2020 04:25:25
Eccentricity: 0.0687905
inclination: 63.3654°
perigee height: 591 km
apogee height: 1621 km
right ascension of ascending node: 93.5931°
argument of perigee: 20.1691°
revolutions per day: 13.40911932
mean anomaly at epoch: 339.8309°
orbit number at epoch: 0

The dashed part of the orbit path shows where the satellite is in the earth's shadow,  

DLR